Theta_e
309 306 308 311 312 313 313 314 316 316 319 318 317 316 316 316 315 314 309 301 301 307 311 314 311 310 311 309 307 304 310 308 309 309 310 306 310 307 307 309 308 308 308 308 313
310 309 306 306 309 310 312 311 312 315 318 318 318 318 316 316 314 311 311 306 300 305 312 310 309 308 309 309 308 309 309 308 307 307 309 308 308 308 309 309 310 309 308 310 313
310 310 307 307 305 310 310 311 310 311 314 317 318 318 318 316 306 303 311 312 302 306 312 310 310 308 309 307 308 308 310 306 308 306 308 309 308 307 308 309 309 310 308 310 311
309 309 309 306 304 305 306 310 310 309 311 313 316 317 317 316 317 305 308 308 305 310 310 309 306 308 308 309 308 309 307 306 307 308 307 308 307 308 306 310 307 306 307 309 311
306 308 308 306 305 304 304 305 307 308 309 312 312 314 314 311 312 315 313 306 308 313 308 306 307 306 308 307 308 309 308 307 307 308 307 307 307 307 305 305 304 304 306 308 311
307 306 307 307 306 306 305 303 304 305 309 308 310 310 312 317 313 314 309 312 315 314 309 306 307 306 307 307 308 307 307 308 307 307 307 308 307 308 306 304 303 302 304 305 308
305 306 304 305 307 307 306 306 303 302 305 308 309 310 311 312 313 311 310 310 311 309 306 308 307 307 305 307 306 307 310 308 307 307 308 307 309 308 306 305 305 304 303 303 306
302 303 305 303 305 306 307 306 304 302 304 307 309 308 310 310 310 311 313 314 314 312 308 308 308 306 307 306 306 308 307 309 307 306 308 307 310 308 305 304 306 305 304 303 303
303 302 303 304 303 306 306 305 304 302 303 305 305 306 308 310 309 308 312 313 311 310 308 307 307 306 307 308 308 305 308 308 308 306 308 306 308 307 306 305 306 305 305 304 304
302 302 303 304 304 304 306 305 303 303 303 303 305 305 306 308 308 312 311 312 307 306 306 306 306 307 306 307 311 309 309 306 307 307 307 307 306 306 305 306 306 306 306 306 306
302 302 303 303 304 304 306 306 303 301 302 302 302 304 305 306 307 308 311 308 305 305 307 305 308 310 309 307 307 307 307 308 306 306 308 308 307 308 307 307 307 307 308 307 308
302 303 303 303 304 304 303 304 302 299 301 300 301 303 304 306 308 305 309 310 308 308 305 307 309 306 306 306 307 306 308 307 308 309 309 309 309 308 307 307 308 309 309 308 306
301 302 302 303 303 303 304 304 302 301 302 302 301 301 303 305 307 305 307 308 311 309 307 308 307 305 307 306 308 306 308 308 309 308 307 308 309 309 308 306 306 306 307 307 308
301 301 302 302 302 302 302 302 302 300 301 300 303 302 302 305 307 306 307 310 309 312 307 307 304 306 306 308 307 309 305 307 308 309 310 306 310 306 307 307 307 307 306 306 305
300 301 301 301 301 301 302 302 300 298 301 298 304 304 303 305 305 306 307 307 310 309 308 310 304 305 307 307 307 308 306 307 307 308 308 307 309 306 305 308 308 307 306 304 303
300 300 301 301 301 301 301 300 297 300 300 298 304 307 307 306 307 306 307 307 308 309 308 308 303 305 306 305 306 303 305 305 304 306 310 307 307 306 308 309 309 307 306 304 302
300 299 300 300 300 300 300 296 299 299 297 298 306 307 306 307 307 307 310 310 312 313 313 311 308 305 304 306 305 306 307 310 310 308 311 304 307 309 306 306 305 306 304 301 303
299 299 297 300 300 299 298 298 299 296 296 301 305 305 308 305 307 307 309 310 309 310 311 313 315 307 306 306 307 307 307 310 310 312 309 304 310 309 305 304 302 301 301 303 305
298 298 299 300 299 298 297 299 299 294 298 301 306 307 307 306 305 308 309 309 309 309 311 312 312 305 305 305 307 308 309 306 308 298 308 307 305 305 304 303 302 301 301 303 305
298 298 299 300 298 296 298 299 293 297 302 303 305 303 300 307 307 307 308 307 308 308 306 308 311 307 306 306 306 308 308 309 311 311 312 311 309 310 309 305 303 303 302 302 305
297 298 297 298 296 296 299 296 295 299 302 302 300 297 303 304 305 305 307 307 307 308 307 306 308 308 306 308 310 308 309 309 309 312 314 313 312 304 308 305 303 303 302 303 304
295 298 297 295 296 297 296 294 298 301 301 302 302 304 300 302 304 305 305 304 303 307 310 306 307 306 309 307 306 309 309 310 313 313 308 311 311 301 300 302 302 304 303 303 302
296 294 296 296 297 296 293 296 297 299 299 300 301 302 302 302 302 305 305 303 303 306 309 308 310 311 310 309 305 308 307 309 309 308 310 313 311 299 300 302 303 304 304 301 302
293 296 293 294 290 295 293 296 297 299 300 299 299 302 302 303 302 306 306 305 303 305 309 308 308 310 309 308 308 309 307 308 310 313 312 312 309 302 301 302 302 303 303 303 302
290 290 289 295 292 293 294 295 295 297 299 299 299 298 299 298 300 303 302 305 305 305 307 308 305 307 307 304 306 309 310 307 310 311 313 312 307 303 302 301 301 301 302 303 303
287 286 282 293 293 294 296 292 296 295 296 298 299 297 295 294 299 298 303 304 305 305 304 306 307 300 302 306 303 306 308 307 308 309 311 307 306 304 301 299 300 300 301 302 302
287 288 292 295 295 293 291 294 296 296 297 296 296 295 294 295 298 300 300 301 303 304 306 307 302 304 310 302 301 306 305 307 307 307 307 308 309 303 302 300 301 300 300 303 304
Wind_Speed
15 15 15 14 13 14 17 15 16 18 16 14 13 12 13 15 19 18 7 11 8 13 11 13 9 9 8 3 3 3 1 4 5 7 5 3 4 2 1 2 3 6 3 1 11
14 14 15 16 16 14 14 17 18 17 17 16 13 13 12 15 19 14 18 16 14 12 15 19 7 9 3 5 3 4 4 10 6 5 3 4 4 5 3 2 4 4 3 6 19
16 15 15 16 15 14 13 13 16 18 18 15 11 11 11 12 6 5 11 11 17 15 17 17 16 6 4 3 5 5 6 5 4 5 3 3 2 4 5 5 9 8 5 8 14
18 19 18 16 15 16 18 14 13 16 17 18 9 8 10 4 6 3 18 14 17 17 12 12 5 7 6 6 5 3 7 5 2 4 5 4 3 3 7 6 3 8 3 7 11
17 19 20 20 19 17 19 19 16 15 15 16 14 11 8 3 7 20 20 3 10 17 13 6 6 5 7 6 6 4 4 5 3 2 4 1 5 6 7 12 6 1 4 7 9
16 15 17 21 22 19 18 17 18 21 16 16 16 14 7 16 11 14 10 4 6 16 8 7 8 5 5 5 7 6 6 2 3 5 4 4 3 3 6 4 8 8 10 9 11
19 18 17 17 22 20 18 17 16 17 22 15 13 10 10 17 8 6 2 2 2 6 5 12 4 5 6 2 5 3 2 2 6 5 5 5 7 15 6 3 7 8 7 8 10
22 21 21 20 21 22 20 18 18 17 17 12 8 7 11 7 19 24 32 32 28 17 14 6 9 3 3 2 4 5 2 3 4 8 4 7 12 6 3 7 10 9 7 7 9
19 21 21 21 21 23 20 20 17 16 11 9 6 6 10 4 25 35 27 13 8 12 11 3 6 5 2 5 1 4 4 4 6 10 4 7 6 6 1 5 7 7 7 6 8
23 23 22 21 24 21 21 20 17 12 7 6 8 5 7 7 17 14 32 25 5 4 2 5 3 5 4 7 11 5 5 4 6 5 4 5 9 13 6 3 8 8 8 8 9
23 23 22 21 22 21 20 15 3 3 12 10 7 9 4 22 5 9 14 17 7 4 8 5 6 19 19 9 7 6 5 7 4 4 5 8 9 16 6 5 9 12 11 9 12
22 21 21 22 21 20 19 6 13 4 4 19 20 17 27 7 6 7 18 10 10 11 7 4 22 7 8 7 7 5 5 4 3 3 5 4 11 10 8 7 11 14 14 14 7
24 21 21 21 21 22 24 21 15 12 2 6 15 15 16 7 6 8 16 9 11 12 16 16 3 11 12 8 12 7 12 5 4 1 3 4 9 6 10 5 6 10 14 13 14
25 23 19 17 17 22 23 23 22 10 4 5 8 9 12 5 11 17 18 12 7 20 9 11 6 14 10 15 14 17 7 7 4 2 5 1 9 5 5 7 6 10 10 15 8
27 24 21 17 10 8 7 22 22 5 5 7 7 4 5 18 8 10 23 6 15 11 9 10 9 8 10 7 13 7 9 9 4 2 2 3 4 6 2 5 9 10 10 6 7
27 23 22 22 24 21 14 30 13 5 7 5 8 11 10 23 4 4 9 3 4 9 11 10 4 11 13 6 14 8 7 6 4 3 8 8 6 4 6 6 8 2 1 2 5
26 25 22 23 14 18 30 9 5 6 3 5 7 9 19 17 22 6 21 19 12 11 10 1 5 4 5 7 4 5 11 2 0 2 8 4 9 13 5 8 7 8 6 7 5
26 21 28 28 23 33 23 5 8 5 8 2 4 7 15 15 15 10 18 23 16 9 9 13 9 11 6 7 10 9 12 6 8 5 5 1 8 6 8 8 7 6 5 4 2
21 21 27 26 31 39 9 11 9 8 8 6 4 10 11 12 5 14 16 24 24 20 12 13 10 4 12 6 17 7 12 11 6 3 3 5 7 8 9 10 6 6 3 4 2
22 13 20 31 35 28 10 11 6 3 3 6 9 6 8 12 10 13 14 17 20 17 4 6 5 7 6 5 4 13 13 6 4 7 5 4 4 4 5 7 5 4 5 3 2
11 4 14 41 31 5 10 7 5 4 3 5 5 3 6 7 14 8 3 8 24 18 12 5 4 2 8 10 15 6 9 3 5 4 8 4 6 6 5 4 7 4 5 3 2
3 6 31 43 6 4 5 6 4 6 3 3 3 2 3 3 7 11 13 12 7 10 20 7 4 4 13 1 2 18 11 21 10 9 4 2 5 1 5 5 7 6 5 4 2
4 3 25 28 8 9 0 2 3 4 4 5 5 4 2 2 3 7 9 9 6 13 14 15 6 5 3 0 2 7 10 19 10 4 7 9 6 1 3 4 3 5 5 3 5
4 5 3 2 2 14 7 5 5 1 4 5 3 3 2 2 1 3 2 4 5 9 19 11 11 14 11 16 6 9 12 15 20 11 9 11 6 5 6 7 6 5 3 1 1
3 2 3 8 3 11 4 6 5 6 2 5 3 6 6 3 2 5 5 3 2 5 9 7 10 17 17 5 6 12 14 9 12 18 14 12 8 8 11 12 8 6 3 2 2
5 5 3 10 12 11 11 4 6 4 6 4 3 7 7 6 6 3 2 2 5 4 4 8 5 5 2 1 7 5 16 13 14 12 16 7 8 7 8 6 6 8 7 5 3
3 4 5 15 12 6 5 7 6 8 0 4 6 4 3 8 6 6 5 4 3 4 8 9 6 4 15 5 5 5 11 15 11 12 15 11 16 7 4 8 10 8 7 7 3
Wind_Direction
306 314 290 300 307 306 299 308 313 321 279 284 287 299 318 324 320 311 248 246 227 227 186 176 171 152 147 119 122 145 91 221 224 164 243 150 181 169 310 150 224 198 204 96 153
290 291 299 297 290 299 297 294 296 311 325 273 282 289 303 320 319 269 285 260 243 212 186 169 155 147 158 158 177 156 177 211 203 202 226 193 182 185 154 187 250 251 173 140 162
279 276 286 289 291 283 287 298 290 295 302 329 275 284 305 327 321 251 339 307 227 205 199 189 160 137 167 140 191 183 217 204 235 211 210 190 214 181 165 223 220 205 197 161 174
276 274 269 279 284 285 278 279 293 288 295 299 330 300 303 315 260 25 348 320 195 195 187 158 138 153 162 194 186 199 226 182 270 211 152 198 144 235 192 236 311 214 146 161 180
298 276 269 269 272 278 279 275 277 287 286 300 303 304 321 226 248 293 323 360 175 186 190 157 154 145 182 186 132 216 224 190 239 157 242 121 229 242 247 254 232 319 187 197 204
295 293 278 266 271 273 271 273 275 272 280 282 288 298 277 255 270 285 295 210 192 189 196 172 190 193 168 207 180 205 199 194 204 223 242 215 243 166 246 250 232 213 232 223 216
291 291 290 281 268 260 263 260 265 266 262 270 282 291 253 243 252 304 181 107 317 224 188 214 200 173 141 183 225 165 178 213 222 208 238 159 274 237 206 191 237 231 230 239 231
275 283 287 287 275 254 256 258 256 266 259 259 274 293 259 241 256 260 259 272 279 278 240 250 213 182 207 186 33 150 97 186 248 154 235 154 258 272 217 199 249 253 263 248 244
279 277 279 282 282 256 248 249 250 258 258 264 266 251 265 257 226 242 241 234 271 237 238 251 166 180 137 130 66 349 178 188 282 193 146 189 257 259 160 206 251 253 257 262 267
274 280 276 273 271 267 241 234 235 241 225 272 230 313 245 246 222 220 227 231 190 156 168 178 164 173 162 170 206 175 193 215 212 210 176 205 255 271 254 273 269 268 256 253 252
275 276 272 264 263 266 249 217 177 227 208 195 210 224 308 234 227 201 188 172 144 164 176 209 194 207 196 202 190 171 185 187 216 216 166 227 248 259 247 232 265 274 273 254 248
273 276 273 262 261 256 248 219 208 184 187 220 246 251 263 330 215 201 168 175 183 199 136 159 227 201 174 185 177 167 179 209 273 154 176 267 257 251 253 235 231 244 260 258 248
270 273 271 263 256 255 241 246 206 204 229 230 217 229 222 222 251 215 170 162 197 192 194 206 210 161 174 177 191 198 203 172 199 163 235 308 270 225 255 211 234 247 243 262 252
265 268 268 269 255 240 241 243 211 181 239 221 202 248 191 225 229 231 199 166 186 207 168 234 205 191 178 199 184 213 162 167 169 136 244 166 282 281 251 272 232 251 241 246 272
262 259 258 244 237 196 232 199 168 220 217 203 174 178 203 182 141 204 194 210 189 164 166 212 156 153 208 193 179 203 154 177 149 167 334 206 292 267 211 275 260 247 253 252 255
256 259 260 248 247 240 210 162 133 205 225 185 148 180 158 200 239 119 168 239 172 177 197 208 187 180 198 164 180 134 89 61 56 92 258 197 185 225 174 210 256 175 122 299 304
256 261 275 246 227 190 161 119 206 211 293 210 175 188 190 191 214 195 181 192 184 182 194 54 179 188 147 113 117 147 146 125 210 194 240 307 197 251 247 249 222 244 258 294 304
257 262 257 254 200 176 161 185 219 183 204 162 155 169 193 196 209 220 187 194 209 183 171 188 209 176 179 172 162 185 177 170 189 193 205 141 229 239 230 253 262 250 249 253 270
254 256 262 234 188 176 174 205 194 201 182 150 119 180 189 194 185 210 210 205 200 189 184 192 227 138 175 154 154 197 205 190 102 41 108 208 285 287 251 263 250 254 244 252 213
248 238 229 196 180 169 181 199 216 226 109 163 188 174 178 184 192 189 206 206 216 213 217 201 196 196 169 114 221 181 181 173 214 166 223 252 269 230 248 243 213 210 220 207 180
248 224 187 165 154 176 190 199 191 198 155 142 193 146 217 172 194 192 188 247 209 211 212 184 155 175 136 198 183 174 183 184 186 165 209 239 251 216 217 213 178 127 114 110 82
132 218 167 156 148 183 187 190 149 154 171 106 95 103 195 204 197 207 206 199 211 192 205 213 153 151 199 17 20 210 191 193 202 197 211 149 255 264 248 170 145 143 112 104 91
180 156 169 168 155 173 181 186 133 141 129 157 166 168 122 319 247 197 224 224 167 187 200 197 204 178 130 50 20 201 203 200 192 107 197 212 240 77 155 168 184 141 118 115 123
169 169 110 170 72 158 146 174 147 59 113 140 137 112 102 240 154 276 308 252 220 193 214 191 224 220 211 209 156 187 189 191 201 210 201 205 194 206 210 198 205 204 178 113 156
188 163 193 160 156 151 135 143 141 155 103 137 143 180 177 171 182 218 241 218 293 256 224 198 205 223 232 242 162 200 207 183 202 212 213 222 205 208 200 197 198 199 182 203 284
145 138 36 141 125 127 168 200 148 146 142 141 160 199 214 172 186 269 56 145 230 208 210 168 249 132 210 105 177 206 207 192 206 215 216 209 233 207 205 125 190 201 184 208 196
127 75 106 148 156 123 187 152 151 121 155 145 179 176 246 222 229 232 214 180 267 258 207 185 161 169 223 156 127 230 200 192 207 215 201 201 225 151 174 195 203 193 187 206 194